Notices

What's New in latest Release from April 7th, 2021:

- Updated Glossary, including Speed of Maximum Gust, and Total Hourly Precipitation

- Updated national and regional climate services offices contacts and prices information

- Addition of station inventory lists for 1981-2010, 1971-2000, and 1961-1990 Normals.

If you haven't already, please take our survey and provide feedback about our website: https://eccc.sondage-survey.ca/f/LanguageSelection.aspx?s=442ca660-fcf1-47c0-95a9-59707d6fd709

Hourly Data Report for November 02, 2020

SHEARWATER RCS
NOVA SCOTIA
Current Station Operator: ECCC - MSC

44°37'47.000" N
63°30'48.000" W
24.00 m
8205092
71264
AAW

Download Data

Hourly Data (November 2020)
Hourly Data Report for November 2, 2020
TIME
LST
Temp Definition
°C
Dew Point Definition
°C
Rel Hum Definition
%
Precip. Amount Definition
mm

Wind Dir Definition
10's deg

Wind Spd Definition
km/h
Visibility Definition
km
Stn Press Definition
kPa
Hmdx Definition


Wind Chill Definition


Weather Definition


00:00 12.7 11.2 91 1.4 15 31   100.58     LegendNANA
01:00 12.8 11.3 90 2.0 14 26   100.29     LegendNANA
02:00 13.3 11.5 89 0.0 14 28   99.92     LegendNANA
03:00 13.3 12.3 94 4.5 14 34   99.60     LegendNANA
04:00 13.6 13.1 97 8.1 14 31   99.47     LegendNANA
05:00 13.6 12.9 96 12.7 16 30   99.24     LegendNANA
06:00 13.0 12.7 98 0.0 17 22   99.08     LegendNANA
07:00 12.8 12.5 98 0.2 16 20   98.84     LegendNANA
08:00 13.3 13.0 98 1.3 16 21   98.69     LegendNANA
09:00 13.1 12.8 99 2.3 16 19   98.54     LegendNANA
10:00 13.1 12.9 98 2.2 16 23   98.29     LegendNANA
11:00 12.5 11.4 93 1.6 22 24   98.28     LegendNANA
12:00 12.8 10.7 87 0.0 23 26   98.14     LegendNANA
13:00 12.5 7.8 73 0.0 23 33   98.16     LegendNANA
14:00 10.6 4.3 65 0.0 22 37   98.23     LegendNANA
15:00 7.9 4.3 79 0.0 23 35   98.31     LegendNANA
16:00 6.9 3.7 80 0.0 24 25   98.44     LegendNANA
17:00 6.7 1.7 70 0.0 23 34   98.51     LegendNANA
18:00 5.5 1.6 76 0.0 23 33   98.65     LegendNANA
19:00 5.0 1.5 78 0.0 23 26   98.74     LegendNANA
20:00 4.7 1.4 79 0.0 24 26   98.86     LegendNANA
21:00 4.2 1.1 80 0.0 24 27   98.99     LegendNANA
22:00 2.8 -1.8 72 0.0 25 29   99.17     LegendNANA
23:00 2.0 -3.4 67 0.0 25 26   99.27     LegendNANA

Notes on Data Quality.

Legend

  • E = Estimated
  • M = Missing
  • NA = Not Available*
  • [empty] = Indicates an unobserved value
Date modified: